This demonstration page uses our WeatherBlox Daily Observations layout. Learn more.

Left ArrowRight Arrow

39.08367, -84.50855

Hourly Observations for March 8, 2021

Temp ( °F °C ) Dew Point ( °F °C ) Humidity (%) Winds ( mph kmh ) Pressure ( in mb ) Visibility ( mi km ) Precip ( " mm )
12:53 am 00:53 Clear 30 -1.1 22 -5.6 72 72 Calm 30.49 1033 10 16.0934 0 0
1:53 am 01:53 Clear 29 -1.7 23 -5 78 78 Calm 30.5 1033 10 16.0934 0 0
2:53 am 02:53 Clear 28 -2.2 22 -5.6 78 78 Calm 30.5 1033 10 16.0934 0 0
3:53 am 03:53 Clear 27 -2.8 22 -5.6 81 81 Calm 30.49 1033 10 16.0934 0 0
4:53 am 04:53 Clear 25 -3.9 21 -6.1 85 85 Calm 30.51 1033 10 16.0934 0 0
5:53 am 05:53 Clear 26 -3.3 22 -5.6 84 84 Calm 30.52 1033 10 16.0934 0 0
6:53 am 06:53 Clear 26 -3.3 22 -5.6 84 84 Calm 30.53 1034 10 16.0934 0 0
7:53 am 07:53 Sunny 28 -2.2 24 -4.4 85 85 Calm 30.53 1034 10 16.0934 0 0
8:53 am 08:53 Sunny 34 1.1 26 -3.3 73 73 WSW 5 7 30.54 1034 10 16.0934 0 0
9:53 am 09:53 Sunny 42 5.6 23 -5 47 47 SSW 6 9 30.53 1034 10 16.0934 0 0
10:53 am 10:53 Sunny 50 10 24 -4.4 36 36 S 6 9 30.5 1033 10 16.0934 0 0
11:53 am 11:53 Sunny 59 15 27 -2.8 29 29 SSW 13 20 30.48 1032 10 16.0934 0 0
12:53 pm 12:53 Sunny 62 16.7 27 -2.8 26 26 SW 15 24 30.45 1031 10 16.0934 0 0
1:53 pm 13:53 Sunny 65 18.3 29 -1.7 26 26 SW 12 19 30.41 1030 10 16.0934 0 0
2:53 pm 14:53 Sunny 66 18.9 29 -1.7 25 25 SW 15 24 30.39 1029 10 16.0934 0 0
3:53 pm 15:53 Sunny 65 18.3 30 -1.1 27 27 SW 8 13 30.38 1029 10 16.0934 0 0
4:53 pm 16:53 Sunny 65 18.3 30 -1.1 27 27 WSW 16 26 30.38 1029 10 16.0934 0 0
5:53 pm 17:53 Sunny 62 16.7 31 -0.6 31 31 SSW 12 19 30.38 1029 10 16.0934 0 0
6:53 pm 18:53 Clear 55 12.8 32 0 42 42 SSW 8 13 30.39 1029 10 16.0934 0 0
7:53 pm 19:53 Clear 51 10.6 35 1.7 54 54 SSW 7 11 30.41 1030 10 16.0934 0 0
8:53 pm 20:53 Clear 47 8.3 33 0.6 59 59 SW 5 7 30.4 1030 10 16.0934 0 0
9:53 pm 21:53 Clear 46 7.8 33 0.6 61 61 WSW 5 7 30.42 1030 10 16.0934 0 0
10:53 pm 22:53 Clear 42 5.6 33 0.6 71 71 Calm 30.42 1030 10 16.0934 0 0
11:53 pm 23:53 Clear 39 3.9 34 1.1 82 82 Calm 30.42 1030 10 16.0934 0 0

Powered by AerisWeather